Gadsden, AL

8:55 PM CDT on July 18, 2019 (GMT -0500)
Gadsden Municipal

Weather History for KGAD - May, 2019

Change the Weather History Date:

Monday, May 13, 2019

  Actual Average Record
Temperature  
Mean Temperature 64 °F -  
Max Temperature 73 °F 78 °F 91 °F (2018)
Min Temperature 55 °F 53 °F 35 °F (1952)
Degree Days  
Heating Degree Days 1    
Growing Degree Days 14 (Base 50)    
Moisture  
Dew Point 56 °F    
Average Humidity 77    
Maximum Humidity 100    
Minimum Humidity 48    
Precipitation  
Precipitation 0.00 in - - ()
Sea Level Pressure  
Sea Level Pressure 29.93 in    
Wind  
Wind Speed 3 mph (NW)    
Max Wind Speed 12 mph    
Max Gust Speed 21 mph    
Visibility 10 miles    
Events      
Averages and records for this station are not official NWS values.
T = Trace of Precipitation, MM = Missing Value Source: NWS Daily Summary

Daily Weather History Graph

Daily Weather History Graph

Search for Another Location

Airport or City:

Astronomy

May. 13, 2019 Rise Set
Actual Time 5:44 AM CDT 7:37 PM CDT
Civil Twilight 5:17 AM CDT 8:04 PM CDT
Nautical Twilight 4:43 AM CDT 8:38 PM CDT
Astronomical Twilight 4:08 AM CDT 9:13 PM CDT
Moon 2:08 PM CDT (5/13) 2:40 AM CDT (5/13)
Length of Visible Light 14h 47m
Length of Day
13h 52m
Waxing Gibbous, 69% of the Moon is Illuminated
May 13
Waxing Gibbous
May 18
Full
May 26
Last Quarter
Jun 3
New
Jun 10
First Quarter

Hourly Weather History & Observations

Time (CDT) Temp. Dew Point Humidity Pressure Visibility Wind Dir Wind Speed Gust Speed Precip Events Conditions
12:56 AM 64.0 °F 64.0 °F 100% 29.85 in 10.0 mi Calm Calm - N/A   Overcast
1:56 AM 63.0 °F 62.1 °F 97% 29.84 in 10.0 mi Calm Calm - N/A   Scattered Clouds
2:56 AM 62.1 °F 62.1 °F 100% 29.86 in 10.0 mi West 4.6 mph - N/A   Overcast
3:56 AM 60.1 °F 60.1 °F 100% 29.87 in 10.0 mi West 3.5 mph - N/A   Clear
4:56 AM 57.0 °F 57.0 °F 100% 29.88 in 10.0 mi Calm Calm - N/A   Clear
5:56 AM 55.0 °F - N/A% 29.92 in 10.0 mi Calm Calm - N/A   Clear
6:56 AM 57.9 °F 57.9 °F 100% 29.94 in 10.0 mi Calm Calm - N/A   Clear
7:56 AM 62.1 °F 57.0 °F 84% 29.95 in 10.0 mi Calm Calm - N/A   Clear
8:56 AM 64.9 °F 55.9 °F 73% 29.95 in 10.0 mi NNE 5.8 mph - N/A   Clear
9:56 AM 66.0 °F 55.9 °F 70% 29.95 in 10.0 mi NW 6.9 mph - N/A   Mostly Cloudy
10:56 AM 68.0 °F 55.0 °F 63% 29.94 in 10.0 mi Variable 4.6 mph - N/A   Clear
11:56 AM 70.0 °F 55.9 °F 61% 29.94 in 10.0 mi NW 10.4 mph - N/A   Scattered Clouds
12:56 PM 71.1 °F 55.0 °F 57% 29.93 in 10.0 mi Variable 6.9 mph - N/A   Overcast
1:56 PM 72.0 °F 51.1 °F 48% 29.93 in 10.0 mi NW 10.4 mph 20.7 mph N/A   Partly Cloudy
2:56 PM 73.0 °F 55.0 °F 53% 29.92 in 10.0 mi North 11.5 mph - N/A   Scattered Clouds
3:56 PM 70.0 °F 52.0 °F 53% 29.92 in 10.0 mi NNW 10.4 mph - N/A   Mostly Cloudy
4:56 PM 72.0 °F 52.0 °F 49% 29.92 in 10.0 mi NW 11.5 mph - N/A   Partly Cloudy
5:56 PM 71.1 °F 51.1 °F 49% 29.93 in 10.0 mi WNW 8.1 mph - N/A   Partly Cloudy
6:56 PM 68.0 °F 53.1 °F 59% 29.94 in 10.0 mi NNW 3.5 mph - N/A   Clear
7:56 PM 64.0 °F 55.9 °F 75% 29.96 in 10.0 mi WNW 4.6 mph - N/A   Mostly Cloudy
8:56 PM 62.1 °F 55.9 °F 80% 29.98 in 10.0 mi NW 3.5 mph - N/A   Mostly Cloudy
9:56 PM 57.9 °F 57.9 °F 100% 29.99 in 10.0 mi Calm Calm - N/A   Partly Cloudy
10:56 PM 57.0 °F 57.0 °F 100% 30.01 in 10.0 mi NNW 3.5 mph - N/A   Mostly Cloudy
11:56 PM 55.0 °F 55.0 °F 100% 30.01 in 10.0 mi NW 3.5 mph - N/A   Clear